Evansville, IN

3:13 PM CDT on August 24, 2016 (GMT -0500)
Evansville Regional

Weather History for KEVV - January, 2013

Change the Weather History Date:

Friday, January 11, 2013

  Actual Average Record
Temperature  
Mean Temperature 54 °F 32 °F  
Max Temperature 61 °F 41 °F 65 °F (1911)
Min Temperature 48 °F 24 °F -16 °F (1977)
Degree Days  
Heating Degree Days 10 33  
Month to date heating degree days 358  
Since 1 July heating degree days 2130  
Cooling Degree Days 0 0  
Month to date cooling degree days 0  
Year to date cooling degree days 0  
Growing Degree Days 4 (Base 50)    
Moisture  
Dew Point 52 °F    
Average Humidity 79    
Maximum Humidity 94    
Minimum Humidity 57    
Precipitation  
Precipitation 0.87 in 0.10 in 1.94 in (1913)
Month to date precipitation 1.09  
Year to date precipitation 1.09  
Snow  
Snow 0.00 in 0.10 in 3.10 in (2011)
Month to date snowfall 1.2  
Since 1 July snowfall 4.7  
Snow Depth -    
Sea Level Pressure  
Sea Level Pressure 29.92 in    
Wind  
Wind Speed 11 mph (SSW)    
Max Wind Speed 24 mph    
Max Gust Speed 32 mph    
Visibility 8 miles    
Events Rain , Thunderstorm    
T = Trace of Precipitation, MM = Missing Value Source: NWS Daily Summary

Daily Weather History Graph

Daily Weather History Graph

Search for Another Location

Airport or City:

Trip Planner

Search our weather history database for the weather conditions in past years. The results will help you decide how hot, cold, wet, or windy it might be!

Date:

Astronomy

Jan. 11, 2013 Rise Set
Actual Time 7:05 AM CST 4:50 PM CST
Civil Twilight 6:36 AM CST 5:19 PM CST
Nautical Twilight 6:04 AM CST 5:52 PM CST
Astronomical Twilight 5:32 AM CST 6:23 PM CST
Moon 6:39 AM CST (1/11) 5:07 PM CST (1/11)
Length of Visible Light 10h 42m
Length of Day
9h 44m
Waning Crescent, 0% of the Moon is Illuminated
Jan 11
Waning Crescent
Jan 11
New
Jan 18
First Quarter
Jan 26
Full
Feb 3
Last Quarter

Hourly Weather History & Observations

Time (CST) Temp. Dew Point Humidity Pressure Visibility Wind Dir Wind Speed Gust Speed Precip Events Conditions
12:14 AM 60.8 °F 57.2 °F 88% 29.89 in 9.0 mi SE 13.8 mph - 0.02 in Rain Light Rain
12:49 AM 60.8 °F 57.2 °F 88% 29.87 in 9.0 mi SE 9.2 mph 18.4 mph 0.03 in Rain Light Rain
12:54 AM 61.0 °F 57.9 °F 90% 29.87 in 9.0 mi SE 11.5 mph 18.4 mph 0.03 in   Overcast
1:26 AM 60.8 °F 57.2 °F 88% 29.88 in 6.0 mi SSW 4.6 mph - N/A Rain Rain
1:32 AM 60.8 °F 57.2 °F 88% 29.91 in 2.5 mi South 9.2 mph - 0.06 in Rain Heavy Rain
1:34 AM 60.8 °F 57.2 °F 88% 29.92 in 1.8 mi SW 13.8 mph 19.6 mph 0.11 in Rain Heavy Rain
1:36 AM 60.8 °F 57.2 °F 88% 29.92 in 1.2 mi WSW 18.4 mph 21.9 mph 0.19 in Rain Heavy Rain
1:39 AM 60.8 °F 57.2 °F 88% 29.92 in 0.8 mi West 17.3 mph 24.2 mph 0.40 in Rain Heavy Rain
1:48 AM 59.0 °F 53.6 °F 82% 29.92 in 1.5 mi WSW 24.2 mph 32.2 mph 0.68 in Rain Heavy Rain
1:52 AM 59.0 °F 53.6 °F 82% 29.92 in 3.0 mi WSW 16.1 mph 32.2 mph 0.70 in Rain Heavy Rain
1:54 AM 59.0 °F 54.0 °F 83% 29.92 in 4.0 mi WSW 16.1 mph 32.2 mph 0.71 in Rain Heavy Rain
2:05 AM 57.2 °F 55.4 °F 94% 29.90 in 4.0 mi WSW 9.2 mph 20.7 mph 0.04 in Rain , Thunderstorm Heavy Rain
2:54 AM 57.0 °F 54.0 °F 89% 29.88 in 10.0 mi Calm Calm - 0.08 in Rain Light Rain
3:54 AM 57.0 °F 53.1 °F 87% 29.90 in 10.0 mi South 8.1 mph - 0.04 in   Overcast
4:54 AM 55.9 °F 53.1 °F 90% 29.89 in 10.0 mi SSW 9.2 mph - 0.00 in Rain Light Rain
5:02 AM 55.4 °F 53.6 °F 94% 29.89 in 10.0 mi SSW 8.1 mph - 0.00 in   Mostly Cloudy
5:31 AM 55.4 °F 53.6 °F 94% 29.90 in 10.0 mi SSW 9.2 mph - 0.00 in   Scattered Clouds
5:54 AM 55.9 °F 52.0 °F 87% 29.91 in 10.0 mi SSW 10.4 mph - 0.00 in   Clear
6:54 AM 54.0 °F 51.1 °F 90% 29.93 in 10.0 mi SSW 8.1 mph - N/A   Clear
7:54 AM 55.0 °F 52.0 °F 89% 29.96 in 10.0 mi SSW 9.2 mph - N/A   Clear
8:54 AM 57.0 °F 52.0 °F 83% 29.97 in 10.0 mi SSW 15.0 mph - N/A   Mostly Cloudy
9:54 AM 57.9 °F 52.0 °F 81% 29.98 in 10.0 mi SW 13.8 mph - N/A   Mostly Cloudy
10:54 AM 57.9 °F 50.0 °F 75% 29.97 in 10.0 mi SSW 16.1 mph - N/A   Scattered Clouds
11:54 AM 60.1 °F 50.0 °F 69% 29.95 in 10.0 mi SW 16.1 mph 21.9 mph N/A   Clear
12:09 PM 60.8 °F 51.8 °F 72% 29.94 in 10.0 mi SSW 12.7 mph - N/A   Mostly Cloudy
12:54 PM 61.0 °F 51.1 °F 70% 29.93 in 10.0 mi SSW 13.8 mph - N/A   Scattered Clouds
1:54 PM 62.6 °F 50.0 °F 63% 29.93 in 10.0 mi SSW 19.6 mph 23.0 mph N/A   Partly Cloudy
2:54 PM 62.1 °F 50.0 °F 65% 29.93 in 10.0 mi SSW 9.2 mph - N/A   Clear
3:54 PM 61.0 °F 50.0 °F 67% 29.93 in 10.0 mi SSW 8.1 mph - N/A   Clear
4:54 PM 60.1 °F 48.0 °F 64% 29.93 in 10.0 mi South 9.2 mph - N/A   Clear
5:54 PM 57.9 °F 46.9 °F 67% 29.94 in 10.0 mi SSW 6.9 mph - N/A   Clear
6:54 PM 55.9 °F 46.9 °F 72% 29.94 in 10.0 mi South 5.8 mph - N/A   Clear
7:54 PM 55.9 °F 46.0 °F 69% 29.94 in 10.0 mi South 8.1 mph - N/A   Clear
8:54 PM 55.9 °F 45.0 °F 67% 29.93 in 10.0 mi South 6.9 mph - N/A   Clear
9:54 PM 55.9 °F 46.0 °F 69% 29.94 in 10.0 mi South 4.6 mph - N/A   Clear
10:54 PM 55.0 °F 46.9 °F 74% 29.94 in 10.0 mi South 5.8 mph - N/A   Clear
11:54 PM 55.9 °F 48.0 °F 75% 29.93 in 10.0 mi South 5.8 mph - N/A   Clear